Year,Month,Day,Hour,Minute,Value (Times are PST for temperature in C)
2010,03,24,00,00,5.30
2010,03,24,00,01,5.30
2010,03,24,00,02,5.30
2010,03,24,00,03,5.30
2010,03,24,00,04,5.20
2010,03,24,00,05,5.20
2010,03,24,00,06,5.20
2010,03,24,00,07,5.20
2010,03,24,00,08,5.20
2010,03,24,00,09,5.10
2010,03,24,00,10,5.10
2010,03,24,00,11,5.10
2010,03,24,00,12,5.10
2010,03,24,00,13,5.10
2010,03,24,00,14,5.10
2010,03,24,00,15,5.10
2010,03,24,00,16,5.10
2010,03,24,00,17,5.10
2010,03,24,00,18,5.10
2010,03,24,00,19,5.10
2010,03,24,00,20,5.10
2010,03,24,00,21,5.10
2010,03,24,00,22,5.10
2010,03,24,00,23,5.10
2010,03,24,00,24,5.20
2010,03,24,00,25,5.20
2010,03,24,00,26,5.30
2010,03,24,00,27,5.30
2010,03,24,00,28,5.30
2010,03,24,00,29,5.30
2010,03,24,00,30,5.30
2010,03,24,00,31,5.30
2010,03,24,00,32,5.20
2010,03,24,00,33,5.20
2010,03,24,00,34,5.20
2010,03,24,00,35,5.30
2010,03,24,00,36,5.30
2010,03,24,00,37,5.30
2010,03,24,00,38,5.30
2010,03,24,00,39,5.30
2010,03,24,00,40,5.30
2010,03,24,00,41,5.30
2010,03,24,00,42,5.30
2010,03,24,00,43,5.30
2010,03,24,00,44,5.20
2010,03,24,00,45,5.20
2010,03,24,00,46,5.20
2010,03,24,00,47,5.20
2010,03,24,00,48,5.20
2010,03,24,00,49,5.20
2010,03,24,00,50,5.20
2010,03,24,00,51,5.20
2010,03,24,00,52,5.20
2010,03,24,00,53,5.20
2010,03,24,00,54,5.20
2010,03,24,00,55,5.20
2010,03,24,00,56,5.20
2010,03,24,00,57,5.20
2010,03,24,00,58,5.30
2010,03,24,00,59,5.30
2010,03,24,01,00,5.40
2010,03,24,01,01,5.40
2010,03,24,01,02,5.40
2010,03,24,01,03,5.40
2010,03,24,01,04,5.40
2010,03,24,01,05,5.40
2010,03,24,01,06,5.40
2010,03,24,01,07,5.40
2010,03,24,01,08,5.40
2010,03,24,01,09,5.40
2010,03,24,01,10,5.40
2010,03,24,01,11,5.30
2010,03,24,01,12,5.30
2010,03,24,01,13,5.30
2010,03,24,01,14,5.30
2010,03,24,01,15,5.30
2010,03,24,01,16,5.20
2010,03,24,01,17,5.20
2010,03,24,01,18,5.20
2010,03,24,01,19,5.20
2010,03,24,01,20,5.20
2010,03,24,01,21,5.20
2010,03,24,01,22,5.20
2010,03,24,01,23,5.20
2010,03,24,01,24,5.10
2010,03,24,01,25,5.10
2010,03,24,01,26,5.20
2010,03,24,01,27,5.20
2010,03,24,01,28,5.20
2010,03,24,01,29,5.20
2010,03,24,01,30,5.30
2010,03,24,01,31,5.30
2010,03,24,01,32,5.30
2010,03,24,01,33,5.30
2010,03,24,01,34,5.30
2010,03,24,01,35,5.20
2010,03,24,01,36,5.20
2010,03,24,01,37,5.20
2010,03,24,01,38,5.10
2010,03,24,01,39,5.10
2010,03,24,01,40,5.10
2010,03,24,01,41,5.10
2010,03,24,01,42,5.10
2010,03,24,01,43,5.00
2010,03,24,01,44,4.90
2010,03,24,01,45,4.90
2010,03,24,01,46,4.90
2010,03,24,01,47,4.90
2010,03,24,01,48,4.90
2010,03,24,01,49,4.90
2010,03,24,01,50,4.90
2010,03,24,01,51,4.90
2010,03,24,01,52,4.90
2010,03,24,01,53,4.80
2010,03,24,01,54,4.80
2010,03,24,01,55,4.80
2010,03,24,01,56,4.80
2010,03,24,01,57,4.80
2010,03,24,01,58,4.90
2010,03,24,01,59,4.90
2010,03,24,02,00,4.80
2010,03,24,02,01,4.80
2010,03,24,02,02,4.80
2010,03,24,02,03,4.90
2010,03,24,02,04,4.80
2010,03,24,02,05,4.80
2010,03,24,02,06,4.80
2010,03,24,02,07,4.70
2010,03,24,02,08,4.70
2010,03,24,02,09,4.70
2010,03,24,02,10,4.60
2010,03,24,02,11,4.60
2010,03,24,02,12,4.60
2010,03,24,02,13,4.60
2010,03,24,02,14,4.60
2010,03,24,02,15,4.60
2010,03,24,02,16,4.60
2010,03,24,02,17,4.60
2010,03,24,02,18,4.60
2010,03,24,02,19,4.60
2010,03,24,02,20,4.60
2010,03,24,02,21,4.60
2010,03,24,02,22,4.60
2010,03,24,02,23,4.60
2010,03,24,02,24,4.60
2010,03,24,02,25,4.60
2010,03,24,02,26,4.60
2010,03,24,02,27,4.60
2010,03,24,02,28,4.60
2010,03,24,02,29,4.60
2010,03,24,02,30,4.50
2010,03,24,02,31,4.50
2010,03,24,02,32,4.50
2010,03,24,02,33,4.50
2010,03,24,02,34,4.50
2010,03,24,02,35,4.60
2010,03,24,02,36,4.60
2010,03,24,02,37,4.60
2010,03,24,02,38,4.60
2010,03,24,02,39,4.60
2010,03,24,02,40,4.60
2010,03,24,02,41,4.60
2010,03,24,02,42,4.60
2010,03,24,02,43,4.60
2010,03,24,02,44,4.60
2010,03,24,02,45,4.50
2010,03,24,02,46,4.50
2010,03,24,02,47,4.50
2010,03,24,02,48,4.50
2010,03,24,02,49,4.50
2010,03,24,02,50,4.40
2010,03,24,02,51,4.40
2010,03,24,02,52,4.40
2010,03,24,02,53,4.40
2010,03,24,02,54,4.40
2010,03,24,02,55,4.40
2010,03,24,02,56,4.40
2010,03,24,02,57,4.40
2010,03,24,02,58,4.50
2010,03,24,02,59,4.50
2010,03,24,03,00,4.50
2010,03,24,03,01,4.50
2010,03,24,03,02,4.40
2010,03,24,03,03,4.40
2010,03,24,03,04,4.40
2010,03,24,03,05,4.30
2010,03,24,03,06,4.30
2010,03,24,03,07,4.30
2010,03,24,03,08,4.30
2010,03,24,03,09,4.30
2010,03,24,03,10,4.30
2010,03,24,03,11,4.20
2010,03,24,03,12,4.20
2010,03,24,03,13,4.20
2010,03,24,03,14,4.20
2010,03,24,03,15,4.20
2010,03,24,03,16,4.20
2010,03,24,03,17,4.10
2010,03,24,03,18,4.10
2010,03,24,03,19,4.10
2010,03,24,03,20,4.00
2010,03,24,03,21,4.00
2010,03,24,03,22,3.90
2010,03,24,03,23,3.90
2010,03,24,03,24,3.90
2010,03,24,03,25,3.80
2010,03,24,03,26,3.80
2010,03,24,03,27,3.80
2010,03,24,03,28,3.80
2010,03,24,03,29,3.80
2010,03,24,03,30,3.80
2010,03,24,03,31,3.80
2010,03,24,03,32,3.70
2010,03,24,03,33,3.70
2010,03,24,03,34,3.60
2010,03,24,03,35,3.60
2010,03,24,03,36,3.60
2010,03,24,03,37,3.60
2010,03,24,03,38,3.60
2010,03,24,03,39,3.60
2010,03,24,03,40,3.60
2010,03,24,03,41,3.60
2010,03,24,03,42,3.60
2010,03,24,03,43,3.60
2010,03,24,03,44,3.60
2010,03,24,03,45,3.60
2010,03,24,03,46,3.60
2010,03,24,03,47,3.60
2010,03,24,03,48,3.60
2010,03,24,03,49,3.60
2010,03,24,03,50,3.70
2010,03,24,03,51,3.70
2010,03,24,03,52,3.70
2010,03,24,03,53,3.70
2010,03,24,03,54,3.80
2010,03,24,03,55,3.80
2010,03,24,03,56,3.80
2010,03,24,03,57,3.80
2010,03,24,03,58,3.80
2010,03,24,03,59,3.90
2010,03,24,04,00,3.90
2010,03,24,04,01,3.90
2010,03,24,04,02,4.00
2010,03,24,04,03,4.00
2010,03,24,04,04,4.00
2010,03,24,04,05,4.00
2010,03,24,04,06,4.00
2010,03,24,04,07,4.00
2010,03,24,04,08,4.00
2010,03,24,04,09,4.00
2010,03,24,04,10,3.90
2010,03,24,04,11,3.90
2010,03,24,04,12,3.80
2010,03,24,04,13,3.90
2010,03,24,04,14,3.90
2010,03,24,04,15,3.90
2010,03,24,04,16,3.90
2010,03,24,04,17,4.00
2010,03,24,04,18,4.00
2010,03,24,04,19,4.10
2010,03,24,04,20,4.20
2010,03,24,04,21,4.20
2010,03,24,04,22,4.20
2010,03,24,04,23,4.20
2010,03,24,04,24,4.30
2010,03,24,04,25,4.30
2010,03,24,04,26,4.30
2010,03,24,04,27,4.30
2010,03,24,04,28,4.40
2010,03,24,04,29,4.40
2010,03,24,04,30,4.40
2010,03,24,04,31,4.40
2010,03,24,04,32,4.40
2010,03,24,04,33,4.40
2010,03,24,04,34,4.40
2010,03,24,04,35,4.50
2010,03,24,04,36,4.50
2010,03,24,04,37,4.50
2010,03,24,04,38,4.50
2010,03,24,04,39,4.40
2010,03,24,04,40,4.40
2010,03,24,04,41,4.40
2010,03,24,04,42,4.40
2010,03,24,04,43,4.40
2010,03,24,04,44,4.40
2010,03,24,04,45,4.40
2010,03,24,04,46,4.40
2010,03,24,04,47,4.40
2010,03,24,04,48,4.40
2010,03,24,04,49,4.40
2010,03,24,04,50,4.30
2010,03,24,04,51,4.30
2010,03,24,04,52,4.30
2010,03,24,04,53,4.30
2010,03,24,04,54,4.20
2010,03,24,04,55,4.20
2010,03,24,04,56,4.20
2010,03,24,04,57,4.20
2010,03,24,04,58,4.20
2010,03,24,04,59,4.20
2010,03,24,05,00,4.20
2010,03,24,05,01,4.20
2010,03,24,05,02,4.20
2010,03,24,05,03,4.20
2010,03,24,05,04,4.20
2010,03,24,05,05,4.20
2010,03,24,05,06,4.20
2010,03,24,05,07,4.20
2010,03,24,05,08,4.20
2010,03,24,05,09,4.20
2010,03,24,05,10,4.20
2010,03,24,05,11,4.10
2010,03,24,05,12,4.10
2010,03,24,05,13,4.10
2010,03,24,05,14,4.10
2010,03,24,05,15,4.10
2010,03,24,05,16,4.10
2010,03,24,05,17,4.10
2010,03,24,05,18,4.20
2010,03,24,05,19,4.20
2010,03,24,05,20,4.20
2010,03,24,05,21,4.20
2010,03,24,05,22,4.20
2010,03,24,05,23,4.20
2010,03,24,05,24,4.20
2010,03,24,05,25,4.20
2010,03,24,05,26,4.20
2010,03,24,05,27,4.20
2010,03,24,05,28,4.30
2010,03,24,05,29,4.30
2010,03,24,05,30,4.30
2010,03,24,05,31,4.30
2010,03,24,05,32,4.30
2010,03,24,05,33,4.30
2010,03,24,05,34,4.30
2010,03,24,05,35,4.30
2010,03,24,05,36,4.30
2010,03,24,05,37,4.40
2010,03,24,05,38,4.40
2010,03,24,05,39,4.40
2010,03,24,05,40,4.30
2010,03,24,05,41,4.30
2010,03,24,05,42,4.30
2010,03,24,05,43,4.30
2010,03,24,05,44,4.30
2010,03,24,05,45,4.30
2010,03,24,05,46,4.30
2010,03,24,05,47,4.40
2010,03,24,05,48,4.50
2010,03,24,05,49,4.50
2010,03,24,05,50,4.60
2010,03,24,05,51,4.70
2010,03,24,05,52,4.70
2010,03,24,05,53,4.70
2010,03,24,05,54,4.80
2010,03,24,05,55,4.80
2010,03,24,05,56,4.90
2010,03,24,05,57,4.90
2010,03,24,05,58,4.90
2010,03,24,05,59,4.90
2010,03,24,06,00,4.80
2010,03,24,06,01,4.80
2010,03,24,06,02,4.80
2010,03,24,06,03,4.80
2010,03,24,06,04,4.80
2010,03,24,06,05,4.70
2010,03,24,06,06,4.70
2010,03,24,06,07,4.80
2010,03,24,06,08,4.70
2010,03,24,06,09,4.70
2010,03,24,06,10,4.70
2010,03,24,06,11,4.70
2010,03,24,06,12,4.70
2010,03,24,06,13,4.70
2010,03,24,06,14,4.60
2010,03,24,06,15,4.60
2010,03,24,06,16,4.60
2010,03,24,06,17,4.60
2010,03,24,06,18,4.60
2010,03,24,06,19,4.70
2010,03,24,06,20,4.70
2010,03,24,06,21,4.70
2010,03,24,06,22,4.80
2010,03,24,06,23,4.80
2010,03,24,06,24,4.80
2010,03,24,06,25,4.90
2010,03,24,06,26,4.90
2010,03,24,06,27,4.90
2010,03,24,06,28,4.90
2010,03,24,06,29,4.90
2010,03,24,06,30,4.90
2010,03,24,06,31,4.90
2010,03,24,06,32,4.90
2010,03,24,06,33,4.90
2010,03,24,06,34,5.10
2010,03,24,06,35,5.10
2010,03,24,06,36,5.10
2010,03,24,06,37,5.10
2010,03,24,06,38,5.10
2010,03,24,06,39,5.10
2010,03,24,06,40,5.10
2010,03,24,06,41,5.10
2010,03,24,06,42,5.10
2010,03,24,06,43,5.10
2010,03,24,06,44,5.10
2010,03,24,06,45,5.10
2010,03,24,06,46,5.10
2010,03,24,06,47,5.10
2010,03,24,06,48,5.10
2010,03,24,06,49,5.10
2010,03,24,06,50,5.10
2010,03,24,06,51,5.10
2010,03,24,06,52,5.10
2010,03,24,06,53,5.10
2010,03,24,06,54,5.10
2010,03,24,06,55,5.10
2010,03,24,06,56,5.10
2010,03,24,06,57,5.20
2010,03,24,06,58,5.30
2010,03,24,06,59,5.30
2010,03,24,07,00,5.20
2010,03,24,07,01,5.20
2010,03,24,07,02,5.20
2010,03,24,07,03,5.30
2010,03,24,07,04,5.30
2010,03,24,07,05,5.30
2010,03,24,07,06,5.30
2010,03,24,07,07,5.40
2010,03,24,07,08,5.40
2010,03,24,07,09,5.40
2010,03,24,07,10,5.40
2010,03,24,07,11,5.40
2010,03,24,07,12,5.40
2010,03,24,07,13,5.40
2010,03,24,07,14,5.50
2010,03,24,07,15,5.50
2010,03,24,07,16,5.60
2010,03,24,07,17,5.60
2010,03,24,07,18,5.60
2010,03,24,07,19,5.60
2010,03,24,07,20,5.70
2010,03,24,07,21,5.70
2010,03,24,07,22,5.70
2010,03,24,07,23,5.70
2010,03,24,07,24,5.70
2010,03,24,07,25,5.70
2010,03,24,07,26,5.70
2010,03,24,07,27,5.70
2010,03,24,07,28,5.70
2010,03,24,07,29,5.70
2010,03,24,07,30,5.70
2010,03,24,07,31,5.70
2010,03,24,07,32,5.80
2010,03,24,07,33,5.80
2010,03,24,07,34,5.80
2010,03,24,07,35,5.80
2010,03,24,07,36,5.80
2010,03,24,07,37,5.80
2010,03,24,07,38,5.90
2010,03,24,07,39,5.90
2010,03,24,07,40,6.00
2010,03,24,07,41,6.10
2010,03,24,07,42,6.10
2010,03,24,07,43,6.20
2010,03,24,07,44,6.20
2010,03,24,07,45,6.20
2010,03,24,07,46,6.20
2010,03,24,07,47,6.20
2010,03,24,07,48,6.20
2010,03,24,07,49,6.20
2010,03,24,07,50,6.30
2010,03,24,07,51,6.30
2010,03,24,07,52,6.30
2010,03,24,07,53,6.40
2010,03,24,07,54,6.40
2010,03,24,07,55,6.40
2010,03,24,07,56,6.40
2010,03,24,07,57,6.40
2010,03,24,07,58,6.40
2010,03,24,07,59,6.40
2010,03,24,08,00,6.40
2010,03,24,08,01,6.40
2010,03,24,08,02,6.40
2010,03,24,08,03,6.40
2010,03,24,08,04,6.40
2010,03,24,08,05,6.40
2010,03,24,08,06,6.40
2010,03,24,08,07,6.40
2010,03,24,08,08,6.40
2010,03,24,08,09,6.30
2010,03,24,08,10,6.30
2010,03,24,08,11,6.30
2010,03,24,08,12,6.20
2010,03,24,08,13,6.20
2010,03,24,08,14,6.20
2010,03,24,08,15,6.20
2010,03,24,08,16,6.20
2010,03,24,08,17,6.20
2010,03,24,08,18,6.30
2010,03,24,08,19,6.30
2010,03,24,08,20,6.30
2010,03,24,08,21,6.40
2010,03,24,08,22,6.40
2010,03,24,08,23,6.40
2010,03,24,08,24,6.60
2010,03,24,08,25,6.60
2010,03,24,08,26,6.60
2010,03,24,08,27,6.70
2010,03,24,08,28,6.70
2010,03,24,08,29,6.80
2010,03,24,08,30,6.80
2010,03,24,08,31,6.80
2010,03,24,08,32,6.80
2010,03,24,08,33,6.80
2010,03,24,08,34,6.90
2010,03,24,08,35,6.90
2010,03,24,08,36,6.90
2010,03,24,08,37,7.00
2010,03,24,08,38,7.00
2010,03,24,08,39,7.00
2010,03,24,08,40,7.00
2010,03,24,08,41,7.10
2010,03,24,08,42,7.10
2010,03,24,08,43,7.10
2010,03,24,08,44,7.10
2010,03,24,08,45,7.20
2010,03,24,08,46,7.20
2010,03,24,08,47,7.20
2010,03,24,08,48,7.20
2010,03,24,08,49,7.30
2010,03,24,08,50,7.30
2010,03,24,08,51,7.30
2010,03,24,08,52,7.30
2010,03,24,08,53,7.30
2010,03,24,08,54,7.30
2010,03,24,08,55,7.40
2010,03,24,08,56,7.50
2010,03,24,08,57,7.50
2010,03,24,08,58,7.60
2010,03,24,08,59,7.70
2010,03,24,09,00,7.70
2010,03,24,09,01,7.80
2010,03,24,09,02,7.90
2010,03,24,09,03,7.90
2010,03,24,09,04,8.00
2010,03,24,09,05,8.10
2010,03,24,09,06,8.20
2010,03,24,09,07,8.30
2010,03,24,09,08,8.40
2010,03,24,09,09,8.50
2010,03,24,09,10,8.60
2010,03,24,09,11,8.80
2010,03,24,09,12,8.90
2010,03,24,09,13,9.00
2010,03,24,09,14,9.00
2010,03,24,09,15,9.10
2010,03,24,09,16,9.20
2010,03,24,09,17,9.30
2010,03,24,09,18,9.30
2010,03,24,09,19,9.40
2010,03,24,09,20,9.40
2010,03,24,09,21,9.50
2010,03,24,09,22,9.50
2010,03,24,09,23,9.60
2010,03,24,09,24,9.60
2010,03,24,09,25,9.60
2010,03,24,09,26,9.60
2010,03,24,09,27,9.60
2010,03,24,09,28,9.70
2010,03,24,09,29,9.70
2010,03,24,09,30,9.60
2010,03,24,09,31,9.60
2010,03,24,09,32,9.60
2010,03,24,09,33,9.60
2010,03,24,09,34,9.60
2010,03,24,09,35,9.60
2010,03,24,09,36,9.60
2010,03,24,09,37,9.60
2010,03,24,09,38,9.60
2010,03,24,09,39,9.60
2010,03,24,09,40,9.60
2010,03,24,09,41,9.70
2010,03,24,09,42,9.70
2010,03,24,09,43,9.70
2010,03,24,09,44,9.70
2010,03,24,09,45,9.70
2010,03,24,09,46,9.70
2010,03,24,09,47,9.70
2010,03,24,09,48,9.70
2010,03,24,09,49,9.70
2010,03,24,09,50,9.70
2010,03,24,09,51,9.70
2010,03,24,09,52,9.70
2010,03,24,09,53,9.70
2010,03,24,09,54,9.70
2010,03,24,09,55,9.80
2010,03,24,09,56,9.80
2010,03,24,09,57,9.80
2010,03,24,09,58,9.80
2010,03,24,09,59,9.90
2010,03,24,10,00,9.90
2010,03,24,10,01,10.10
2010,03,24,10,02,10.10
2010,03,24,10,03,10.20
2010,03,24,10,04,10.20
2010,03,24,10,05,10.20
2010,03,24,10,06,10.20
2010,03,24,10,07,10.20
2010,03,24,10,08,10.20
2010,03,24,10,09,10.30
2010,03,24,10,10,10.30
2010,03,24,10,11,10.30
2010,03,24,10,12,10.30
2010,03,24,10,13,10.30
2010,03,24,10,14,10.40
2010,03,24,10,15,10.40
2010,03,24,10,16,10.40
2010,03,24,10,17,10.50
2010,03,24,10,18,10.60
2010,03,24,10,19,10.60
2010,03,24,10,20,10.70
2010,03,24,10,21,10.70
2010,03,24,10,22,10.70
2010,03,24,10,23,10.80
2010,03,24,10,24,10.80
2010,03,24,10,25,10.90
2010,03,24,10,26,10.90
2010,03,24,10,27,11.00
2010,03,24,10,28,11.10
2010,03,24,10,29,11.10
2010,03,24,10,30,11.20
2010,03,24,10,31,11.30
2010,03,24,10,32,11.30
2010,03,24,10,33,11.30
2010,03,24,10,34,11.30
2010,03,24,10,35,11.30
2010,03,24,10,36,11.30
2010,03,24,10,37,11.30
2010,03,24,10,38,11.30
2010,03,24,10,39,11.30
2010,03,24,10,40,11.30
2010,03,24,10,41,11.40
2010,03,24,10,42,11.40
2010,03,24,10,43,11.40
2010,03,24,10,44,11.40
2010,03,24,10,45,11.40
2010,03,24,10,46,11.40
2010,03,24,10,47,11.40
2010,03,24,10,48,11.40
2010,03,24,10,49,11.40
2010,03,24,10,50,11.40
2010,03,24,10,51,11.40
2010,03,24,10,52,11.40
2010,03,24,10,53,11.40
2010,03,24,10,54,11.40
2010,03,24,10,55,11.50
2010,03,24,10,56,11.60
2010,03,24,10,57,11.60
2010,03,24,10,58,11.60
2010,03,24,10,59,11.50
2010,03,24,11,00,11.40
2010,03,24,11,01,11.40
2010,03,24,11,02,11.40
2010,03,24,11,03,11.40
2010,03,24,11,04,11.40
2010,03,24,11,05,11.50
2010,03,24,11,06,11.60
2010,03,24,11,07,11.60
2010,03,24,11,08,11.60
2010,03,24,11,09,11.60
2010,03,24,11,10,11.70
2010,03,24,11,11,11.60
2010,03,24,11,12,11.70
2010,03,24,11,13,11.70
2010,03,24,11,14,11.80
2010,03,24,11,15,11.80
2010,03,24,11,16,11.80
2010,03,24,11,17,11.80
2010,03,24,11,18,11.80
2010,03,24,11,19,11.80
2010,03,24,11,20,11.80
2010,03,24,11,21,11.80
2010,03,24,11,22,11.90
2010,03,24,11,23,12.00
2010,03,24,11,24,12.10
2010,03,24,11,25,12.20
2010,03,24,11,26,12.20
2010,03,24,11,27,12.20
2010,03,24,11,28,12.20
2010,03,24,11,29,12.30
2010,03,24,11,30,12.20
2010,03,24,11,31,12.30
2010,03,24,11,32,12.30
2010,03,24,11,33,12.40
2010,03,24,11,34,12.40
2010,03,24,11,35,12.40
2010,03,24,11,36,12.40
2010,03,24,11,37,12.40
2010,03,24,11,38,12.40
2010,03,24,11,39,12.50
2010,03,24,11,40,12.50
2010,03,24,11,41,12.40
2010,03,24,11,42,12.40
2010,03,24,11,43,12.40
2010,03,24,11,44,12.50
2010,03,24,11,45,12.50
2010,03,24,11,46,12.50
2010,03,24,11,47,12.50
2010,03,24,11,48,12.40
2010,03,24,11,49,12.40
2010,03,24,11,50,12.50
2010,03,24,11,51,12.60
2010,03,24,11,52,12.60
2010,03,24,11,53,12.60
2010,03,24,11,54,12.50
2010,03,24,11,55,12.60
2010,03,24,11,56,12.70
2010,03,24,11,57,12.80
2010,03,24,11,58,12.80
2010,03,24,11,59,12.80
2010,03,24,12,00,12.80
2010,03,24,12,01,12.80
2010,03,24,12,02,12.80
2010,03,24,12,03,12.80
2010,03,24,12,04,12.90
2010,03,24,12,05,13.00
2010,03,24,12,06,13.00
2010,03,24,12,07,12.90
2010,03,24,12,08,12.80
2010,03,24,12,09,12.80
2010,03,24,12,10,12.70
2010,03,24,12,11,12.70
2010,03,24,12,12,12.70
2010,03,24,12,13,12.70
2010,03,24,12,14,12.80
2010,03,24,12,15,12.80
2010,03,24,12,16,12.80
2010,03,24,12,17,12.90
2010,03,24,12,18,13.00
2010,03,24,12,19,13.00
2010,03,24,12,20,13.10
2010,03,24,12,21,13.10
2010,03,24,12,22,13.10
2010,03,24,12,23,13.20
2010,03,24,12,24,13.20
2010,03,24,12,25,13.20
2010,03,24,12,26,13.30
2010,03,24,12,27,13.40
2010,03,24,12,28,13.40
2010,03,24,12,29,13.40
2010,03,24,12,30,13.40
2010,03,24,12,31,13.40
2010,03,24,12,32,13.30
2010,03,24,12,33,13.20
2010,03,24,12,34,13.10
2010,03,24,12,35,13.10
2010,03,24,12,36,13.20
2010,03,24,12,37,13.30
2010,03,24,12,38,13.40
2010,03,24,12,39,13.40
2010,03,24,12,40,13.50
2010,03,24,12,41,13.50
2010,03,24,12,42,13.60
2010,03,24,12,43,13.60
2010,03,24,12,44,13.60
2010,03,24,12,45,13.60
2010,03,24,12,46,13.70
2010,03,24,12,47,13.60
2010,03,24,12,48,13.60
2010,03,24,12,49,13.60
2010,03,24,12,50,13.70
2010,03,24,12,51,13.70
2010,03,24,12,52,13.80
2010,03,24,12,53,13.80
2010,03,24,12,54,13.90
2010,03,24,12,55,14.00
2010,03,24,12,56,13.90
2010,03,24,12,57,14.00
2010,03,24,12,58,14.00
2010,03,24,12,59,14.00
2010,03,24,13,00,14.10
2010,03,24,13,01,14.20
2010,03,24,13,02,14.20
2010,03,24,13,03,14.20
2010,03,24,13,04,14.10
2010,03,24,13,05,14.00
2010,03,24,13,06,14.00
2010,03,24,13,07,14.00
2010,03,24,13,08,14.00
2010,03,24,13,09,14.10
2010,03,24,13,10,14.20
2010,03,24,13,11,14.20
2010,03,24,13,12,14.20
2010,03,24,13,13,14.00
2010,03,24,13,14,14.00
2010,03,24,13,15,14.00
2010,03,24,13,16,14.00
2010,03,24,13,17,14.20
2010,03,24,13,18,14.20
2010,03,24,13,19,14.10
2010,03,24,13,20,14.00
2010,03,24,13,21,13.90
2010,03,24,13,22,13.70
2010,03,24,13,23,13.50
2010,03,24,13,24,13.30
2010,03,24,13,25,13.30
2010,03,24,13,26,13.20
2010,03,24,13,27,13.10
2010,03,24,13,28,13.10
2010,03,24,13,29,13.00
2010,03,24,13,30,12.90
2010,03,24,13,31,13.00
2010,03,24,13,32,13.00
2010,03,24,13,33,13.10
2010,03,24,13,34,13.10
2010,03,24,13,35,13.00
2010,03,24,13,36,12.90
2010,03,24,13,37,12.80
2010,03,24,13,38,12.70
2010,03,24,13,39,12.70
2010,03,24,13,40,12.60
2010,03,24,13,41,12.60
2010,03,24,13,42,12.60
2010,03,24,13,43,12.60
2010,03,24,13,44,12.70
2010,03,24,13,45,12.60
2010,03,24,13,46,12.50
2010,03,24,13,47,12.40
2010,03,24,13,48,12.40
2010,03,24,13,49,12.30
2010,03,24,13,50,12.30
2010,03,24,13,51,12.10
2010,03,24,13,52,12.10
2010,03,24,13,53,12.10
2010,03,24,13,54,12.10
2010,03,24,13,55,12.20
2010,03,24,13,56,12.10
2010,03,24,13,57,12.10
2010,03,24,13,58,12.10
2010,03,24,13,59,12.10
2010,03,24,14,00,12.20
2010,03,24,14,01,12.10
2010,03,24,14,02,12.10
2010,03,24,14,03,12.10
2010,03,24,14,04,12.20
2010,03,24,14,05,12.30
2010,03,24,14,06,12.40
2010,03,24,14,07,12.50
2010,03,24,14,08,12.60
2010,03,24,14,09,12.60
2010,03,24,14,10,12.60
2010,03,24,14,11,12.50
2010,03,24,14,12,12.60
2010,03,24,14,13,12.70
2010,03,24,14,14,12.70
2010,03,24,14,15,12.80
2010,03,24,14,16,12.90
2010,03,24,14,17,13.00
2010,03,24,14,18,13.10
2010,03,24,14,19,13.30
2010,03,24,14,20,13.30
2010,03,24,14,21,13.30
2010,03,24,14,22,13.40
2010,03,24,14,23,13.50
2010,03,24,14,24,13.50
2010,03,24,14,25,13.60
2010,03,24,14,26,13.70
2010,03,24,14,27,13.80
2010,03,24,14,28,13.80
2010,03,24,14,29,13.80
2010,03,24,14,30,13.80
2010,03,24,14,31,13.80
2010,03,24,14,32,13.90
2010,03,24,14,33,13.90
2010,03,24,14,34,13.90
2010,03,24,14,35,13.90
2010,03,24,14,36,13.90
2010,03,24,14,37,13.90
2010,03,24,14,38,14.00
2010,03,24,14,39,13.90
2010,03,24,14,40,13.90
2010,03,24,14,41,13.80
2010,03,24,14,42,13.60
2010,03,24,14,43,13.40
2010,03,24,14,44,13.30
2010,03,24,14,45,13.10
2010,03,24,14,46,12.90
2010,03,24,14,47,12.70
2010,03,24,14,48,12.60
2010,03,24,14,49,12.60
2010,03,24,14,50,12.50
2010,03,24,14,51,12.40
2010,03,24,14,52,12.40
2010,03,24,14,53,12.30
2010,03,24,14,54,12.20
2010,03,24,14,55,12.20
2010,03,24,14,56,12.10
2010,03,24,14,57,12.10
2010,03,24,14,58,12.00
2010,03,24,14,59,11.90
2010,03,24,15,00,12.00
2010,03,24,15,01,12.00
2010,03,24,15,02,11.90
2010,03,24,15,03,11.90
2010,03,24,15,04,11.90
2010,03,24,15,05,11.80
2010,03,24,15,06,11.80
2010,03,24,15,07,11.70
2010,03,24,15,08,11.70
2010,03,24,15,09,11.60
2010,03,24,15,10,11.60
2010,03,24,15,11,11.60
2010,03,24,15,12,11.60
2010,03,24,15,13,11.60
2010,03,24,15,14,11.60
2010,03,24,15,15,11.60
2010,03,24,15,16,11.60
2010,03,24,15,17,11.60
2010,03,24,15,18,11.60
2010,03,24,15,19,11.60
2010,03,24,15,20,11.60
2010,03,24,15,21,11.60
2010,03,24,15,22,11.50
2010,03,24,15,23,11.50
2010,03,24,15,24,11.60
2010,03,24,15,25,11.60
2010,03,24,15,26,11.50
2010,03,24,15,27,11.60
2010,03,24,15,28,11.60
2010,03,24,15,29,11.60
2010,03,24,15,30,11.60
2010,03,24,15,31,11.70
2010,03,24,15,32,11.70
2010,03,24,15,33,11.70
2010,03,24,15,34,11.60
2010,03,24,15,35,11.50
2010,03,24,15,36,11.40
2010,03,24,15,37,11.30
2010,03,24,15,38,11.20
2010,03,24,15,39,11.20
2010,03,24,15,40,11.20
2010,03,24,15,41,11.20
2010,03,24,15,42,11.10
2010,03,24,15,43,11.10
2010,03,24,15,44,11.10
2010,03,24,15,45,10.90
2010,03,24,15,46,10.90
2010,03,24,15,47,10.90
2010,03,24,15,48,10.90
2010,03,24,15,49,10.90
2010,03,24,15,50,10.90
2010,03,24,15,51,10.80
2010,03,24,15,52,10.70
2010,03,24,15,53,10.70
2010,03,24,15,54,10.70
2010,03,24,15,55,10.60
2010,03,24,15,56,10.50
2010,03,24,15,57,10.40
2010,03,24,15,58,10.40
2010,03,24,15,59,10.40
2010,03,24,16,00,10.40
2010,03,24,16,01,10.40
2010,03,24,16,02,10.40
2010,03,24,16,03,10.30
2010,03,24,16,04,10.30
2010,03,24,16,05,10.40
2010,03,24,16,06,10.40
2010,03,24,16,07,10.40
2010,03,24,16,08,10.40
2010,03,24,16,09,10.40
2010,03,24,16,10,10.40
2010,03,24,16,11,10.40
2010,03,24,16,12,10.30
2010,03,24,16,13,10.30
2010,03,24,16,14,10.20
2010,03,24,16,15,10.20
2010,03,24,16,16,10.20
2010,03,24,16,17,10.10
2010,03,24,16,18,10.10
2010,03,24,16,19,10.10
2010,03,24,16,20,10.10
2010,03,24,16,21,10.10
2010,03,24,16,22,10.10
2010,03,24,16,23,10.10
2010,03,24,16,24,10.10
2010,03,24,16,25,10.10
2010,03,24,16,26,10.20
2010,03,24,16,27,10.20
2010,03,24,16,28,10.20
2010,03,24,16,29,10.10
2010,03,24,16,30,10.20
2010,03,24,16,31,10.20
2010,03,24,16,32,10.30
2010,03,24,16,33,10.30
2010,03,24,16,34,10.40
2010,03,24,16,35,10.40
2010,03,24,16,36,10.40
2010,03,24,16,37,10.40
2010,03,24,16,38,10.40
2010,03,24,16,39,10.40
2010,03,24,16,40,10.40
2010,03,24,16,41,10.40
2010,03,24,16,42,10.30
2010,03,24,16,43,10.30
2010,03,24,16,44,10.30
2010,03,24,16,45,10.30
2010,03,24,16,46,10.30
2010,03,24,16,47,10.30
2010,03,24,16,48,10.30
2010,03,24,16,49,10.40
2010,03,24,16,50,10.30
2010,03,24,16,51,10.30
2010,03,24,16,52,10.20
2010,03,24,16,53,10.10
2010,03,24,16,54,10.10
2010,03,24,16,55,10.10
2010,03,24,16,56,10.10
2010,03,24,16,57,10.10
2010,03,24,16,58,10.10
2010,03,24,16,59,10.10
2010,03,24,17,00,10.10
2010,03,24,17,01,10.20
2010,03,24,17,02,10.20
2010,03,24,17,03,10.20
2010,03,24,17,04,10.20
2010,03,24,17,05,10.10
2010,03,24,17,06,10.10
2010,03,24,17,07,10.10
2010,03,24,17,08,10.10
2010,03,24,17,09,10.10
2010,03,24,17,10,10.10
2010,03,24,17,11,10.10
2010,03,24,17,12,10.10
2010,03,24,17,13,10.20
2010,03,24,17,14,10.30
2010,03,24,17,15,10.40
2010,03,24,17,16,10.40
2010,03,24,17,17,10.40
2010,03,24,17,18,10.40
2010,03,24,17,19,10.40
2010,03,24,17,20,10.40
2010,03,24,17,21,10.50
2010,03,24,17,22,10.60
2010,03,24,17,23,10.60
2010,03,24,17,24,10.60
2010,03,24,17,25,10.60
2010,03,24,17,26,10.60
2010,03,24,17,27,10.60
2010,03,24,17,28,10.60
2010,03,24,17,29,10.60
2010,03,24,17,30,10.60
2010,03,24,17,31,10.60
2010,03,24,17,32,10.60
2010,03,24,17,33,10.60
2010,03,24,17,34,10.60
2010,03,24,17,35,10.60
2010,03,24,17,36,10.60
2010,03,24,17,37,10.60
2010,03,24,17,38,10.60
2010,03,24,17,39,10.60
2010,03,24,17,40,10.60
2010,03,24,17,41,10.60
2010,03,24,17,42,10.60
2010,03,24,17,43,10.60
2010,03,24,17,44,10.60
2010,03,24,17,45,10.60